EW5206 Weather Reports


Display with metric or nautical units.
time (UTC)temp
F
wind
direction
speed
MPH
gust
MPH
rain 1hr
in
rain 24hr
in
rain mn
in
humidity
%
barometer
mb
20260901140026 86 0.0 0.0 0.00 0.00 0.00 63 1019.0
20260901134523 85 0.0 0.0 0.00 0.00 0.00 66 1019.2
20260901133018 82 0.0 0.0 0.00 0.00 0.00 72 1019.2
20260901131522 79 0.0 0.0 0.00 0.00 0.00 78 1019.3
20260901130010 75 0.0 0.0 0.00 0.00 0.00 84 1019.4
20260901124506 72 0.0 0.0 0.00 0.00 0.00 91 1019.4
20260901123005 68 0.0 0.0 0.00 0.00 0.00 95 1019.4
20260901121505 66 0.0 0.0 0.00 0.00 0.00 97 1019.3
20260901120001 65 0.0 0.0 0.00 0.00 0.00 96 1019.1
20260901114602 65 0.0 0.0 0.00 0.00 0.00 95 1019.0
20260901113110 65 0.0 0.0 0.00 0.00 0.00 96 1018.8
20260901111600 65 0.0 0.0 0.00 0.00 0.00 96 1018.6
20260901110108 65 0.0 0.0 0.00 0.00 0.00 95 1018.6
20260901104602 65 0.0 0.0 0.00 0.00 0.00 95 1018.3
20260901103058 65 0.0 0.0 0.00 0.00 0.00 95 1018.3
20260901101556 65 0.0 0.0 0.00 0.00 0.00 95 1018.1
20260901100056 65 0.0 0.0 0.00 0.00 0.00 95 1018.1
20260901094555 65 0.0 0.0 0.00 0.00 0.00 94 1018.0
20260901093053 66 0.0 0.0 0.00 0.00 0.00 94 1018.0
20260901091551 66 0.0 0.0 0.00 0.00 0.00 94 1017.8
20260901090055 66 0.0 0.0 0.00 0.00 0.00 94 1017.8
20260901084549 66 0.0 0.0 0.00 0.00 0.00 93 1017.7
20260901083047 67 0.0 0.0 0.00 0.00 0.00 93 1017.8
20260901081548 67 0.0 0.0 0.00 0.00 0.00 92 1017.8
20260901080045 67 0.0 0.0 0.00 0.00 0.00 92 1018.1
20260901074542 67 0.0 0.0 0.00 0.00 0.00 91 1018.0
20260901073040 68 0.0 0.0 0.00 0.00 0.00 90 1018.1
20260901071545 68 0.0 0.0 0.00 0.00 0.00 90 1018.3
20260901070036 68 0.0 0.0 0.00 0.00 0.00 90 1018.2
20260901064540 69 0.0 0.0 0.00 0.00 0.00 89 1018.2
20260901063033 70 0.0 0.0 0.00 0.00 0.00 87 1018.3
20260901061528 70 0.0 0.0 0.00 0.00 0.00 87 1018.4
20260901060026 70 0.0 0.0 0.00 0.00 0.00 86 1018.6
20260901054525 70 0.0 0.0 0.00 0.00 0.00 86 1018.7
20260901053024 70 0.0 0.0 0.00 0.00 0.00 87 1018.9
20260901051522 71 0.0 0.0 0.00 0.00 0.00 86 1018.9
20260901050020 71 0.0 0.0 0.00 0.00 0.00 84 1018.9
20260901044517 72 0.0 0.0 0.00 0.00 0.00 84 1019.0
20260901043018 72 0.0 0.0 0.00 0.00 0.00 83 1018.9
20260901041515 72 0.0 0.0 0.00 0.00 0.00 82 1018.9
20260901040014 72 0.0 0.0 0.00 0.00 0.00 83 1019.0
20260901034515 73 0.0 0.0 0.00 0.00 0.00 82 1018.9
20260901033012 73 0.0 0.0 0.00 0.00 0.00 82 1018.9
20260901031512 73 0.0 0.0 0.00 0.00 0.00 80 1018.8
20260901030011 73 0.0 0.0 0.00 0.00 0.00 80 1018.9
20260901024510 73 0.0 0.0 0.00 0.00 0.00 80 1018.9
20260901023026 74 0.0 0.0 0.00 0.00 0.00 79 1018.9
20260901021515 74 0.0 0.0 0.00 0.00 0.00 79 1018.8
20260901020010 74 0.0 0.0 0.00 0.00 0.00 79 1018.8
20260901014508 74 0.0 0.0 0.00 0.00 0.00 80 1018.6
20260901013008 74 0.0 0.0 0.00 0.00 0.00 78 1018.5
20260901011508 75 0.0 0.0 0.00 0.00 0.00 78 1018.3
20260901010007 75 0.0 0.0 0.00 0.00 0.00 77 1017.9
20260901004506 76 0.0 0.0 0.00 0.00 0.00 76 1017.8
20260901003006 77 0.0 0.0 0.00 0.00 0.00 74 1017.9
20260901001505 78 0.0 0.0 0.00 0.00 0.00 72 1017.9
20260901000106 79 0.0 0.0 0.00 0.00 0.00 71 1017.7
20260831234504 80 0.0 0.0 0.00 0.00 0.00 70 1017.7
20260831233010 80 0.0 0.0 0.00 0.00 0.00 70 1017.7
20260831231503 80 0.0 0.0 0.00 0.00 0.00 70 1017.8
20260831230002 81 0.0 0.0 0.00 0.00 0.00 69 1017.9
20260831224600 81 0.0 0.0 0.00 0.00 0.00 68 1017.9
20260831224501 81 0.0 0.0 0.00 0.00 0.00 68 1017.8
20260831223101 81 0.0 0.0 0.00 0.00 0.00 67 1018.2
20260831221600 82 0.0 0.0 0.00 0.00 0.00 66 1018.2
20260831220100 82 0.0 0.0 0.00 0.00 0.00 67 1018.3
20260831214625 83 0.0 0.0 0.00 0.00 0.00 66 1018.2
20260831213100 84 0.0 0.0 0.00 0.00 0.00 62 1018.0
20260831211558 85 0.0 0.0 0.00 0.00 0.00 59 1018.1
20260831210058 86 0.0 0.0 0.00 0.00 0.00 54 1018.0
20260831204555 87 0.0 0.0 0.00 0.00 0.00 49 1017.8
20260831203051 87 0.0 0.0 0.00 0.00 0.00 50 1018.0
20260831201552 87 0.0 0.0 0.00 0.00 0.00 48 1018.1
20260831200055 87 0.0 0.0 0.00 0.00 0.00 51 1018.1
20260831194618 87 0.0 0.0 0.00 0.00 0.00 50 1018.4
20260831193048 87 0.0 0.0 0.00 0.00 0.00 50 1018.4
20260831191550 87 0.0 0.0 0.00 0.00 0.00 48 1018.5
20260831190047 87 0.0 0.0 0.00 0.00 0.00 49 1018.5
20260831184546 88 0.0 0.0 0.00 0.00 0.00 49 1018.7
20260831183044 88 0.0 0.0 0.00 0.00 0.00 47 1018.7
20260831181544 89 0.0 0.0 0.00 0.00 0.00 48 1018.8
20260831180042 89 0.0 0.0 0.00 0.00 0.00 45 1018.8
20260831174542 90 0.0 0.0 0.00 0.00 0.00 47 1019.0
20260831173041 92 0.0 0.0 0.00 0.00 0.00 44 1019.2
20260831171545 93 0.0 0.0 0.00 0.00 0.00 43 1019.2
20260831170042 93 0.0 0.0 0.00 0.00 0.00 45 1019.4
20260831164541 91 0.0 0.0 0.00 0.00 0.00 45 1019.5
20260831163039 91 0.0 0.0 0.00 0.00 0.00 49 1019.7
20260831161539 92 0.0 0.0 0.00 0.00 0.00 47 1019.9
20260831160041 91 0.0 0.0 0.00 0.00 0.00 50 1019.9
20260831154538 92 0.0 0.0 0.00 0.00 0.00 52 1019.8
20260831153038 93 0.0 0.0 0.00 0.00 0.00 49 1019.7
20260831151537 92 0.0 0.0 0.00 0.00 0.00 50 1019.7
20260831150032 91 0.0 0.0 0.00 0.00 0.00 55 1019.7
20260831144527 90 0.0 0.0 0.00 0.00 0.00 54 1019.6
20260831143024 88 0.0 0.0 0.00 0.00 0.00 60 1019.6
20260831141521 87 0.0 0.0 0.00 0.00 0.00 61 1019.5